Change the Weather History Date:

Friday, November 25, 2011

  Actual Average Record
Temperature  
Mean Temperature 52 °F 34 °F  
Max Temperature 57 °F 40 °F 60 °F (1913)
Min Temperature 46 °F 28 °F -5 °F (1950)
Degree Days  
Heating Degree Days 13 31  
Month to date heating degree days 559 668  
Since 1 July heating degree days 1180 1455  
Moisture  
Dew Point 41 °F    
Average Humidity 71    
Maximum Humidity 82    
Minimum Humidity 59    
Precipitation  
Precipitation 0.00 in 0.08 in 0.52 in (1952)
Month to date precipitation 2.62 2.28  
Year to date precipitation 25.16 30.14  
Sea Level Pressure  
Sea Level Pressure 29.86 in    
Wind  
Wind Speed 7 mph (SSW)    
Max Wind Speed 16 mph    
Max Gust Speed 24 mph    
Visibility 10 miles    
Events      
T = Trace of Precipitation, MM = Missing Value Source: NWS Daily Summary

Daily Weather History Graph

Daily Weather History Graph

Search for Another Location

Airport or City:

Trip Planner

Search our weather history database for the weather conditions in past years. The results will help you decide how hot, cold, wet, or windy it might be!

Date:

Astronomy

Nov. 25, 2011 Rise Set
Actual Time 7:51 AM EST 5:06 PM EST
Civil Twilight 7:19 AM EST 5:38 PM EST
Nautical Twilight 6:43 AM EST 6:14 PM EST
Astronomical Twilight 6:08 AM EST 6:49 PM EST
Moon 8:21 AM EST (11/25) 5:30 PM EST (11/25)
Length of Visible Light 10h 19m
Length of Day
9h 14m
New Moon, 0% of the Moon is Illuminated
Nov 25
New Moon
Dec 2
First Quarter
Dec 10
Full
Dec 17
Last Quarter
Dec 24
New

Hourly Weather History & Observations

Time (EST) Temp. Windchill Dew Point Humidity Pressure Visibility Wind Dir Wind Speed Gust Speed Precip Events Conditions
12:53 AM 48.0 °F - 41.0 °F 77% 29.91 in 9.0 mi SSW 8.1 mph - N/A   Clear
1:53 AM 48.0 °F - 41.0 °F 77% 29.90 in 10.0 mi SSW 6.9 mph 16.1 mph N/A   Clear
2:53 AM 48.2 °F - 41.0 °F 76% 29.89 in 10.0 mi SSW 9.2 mph - N/A   Clear
3:53 AM 46.9 °F - 41.0 °F 80% 29.88 in 10.0 mi SSW 9.2 mph 17.3 mph N/A   Clear
4:53 AM 46.4 °F 42.9 °F 39.2 °F 76% 29.86 in 10.0 mi SSW 6.9 mph - N/A   Clear
5:53 AM 46.0 °F 42.5 °F 39.9 °F 79% 29.87 in 10.0 mi SSW 6.9 mph - N/A   Clear
6:53 AM 46.9 °F - 39.9 °F 77% 29.86 in 10.0 mi SSW 6.9 mph - N/A   Partly Cloudy
7:53 AM 46.0 °F 41.4 °F 39.0 °F 76% 29.87 in 10.0 mi South 9.2 mph - N/A   Scattered Clouds
8:53 AM 46.9 °F - 39.9 °F 77% 29.86 in 10.0 mi Variable 5.8 mph - N/A   Mostly Cloudy
9:53 AM 48.9 °F - 39.9 °F 71% 29.86 in 10.0 mi SSW 9.2 mph 17.3 mph N/A   Mostly Cloudy
10:53 AM 53.6 °F - 41.0 °F 62% 29.84 in 10.0 mi SSW 8.1 mph 18.4 mph N/A   Mostly Cloudy
11:53 AM 55.0 °F - 41.0 °F 59% 29.83 in 10.0 mi WSW 13.8 mph 18.4 mph N/A   Mostly Cloudy
12:53 PM 55.0 °F - 41.0 °F 59% 29.82 in 10.0 mi SSW 9.2 mph 19.6 mph N/A   Mostly Cloudy
1:53 PM 55.9 °F - 42.1 °F 60% 29.81 in 10.0 mi WSW 13.8 mph 20.7 mph N/A   Mostly Cloudy
2:53 PM 55.0 °F - 42.1 °F 62% 29.79 in 10.0 mi WSW 9.2 mph - N/A   Mostly Cloudy
3:53 PM 53.1 °F - 41.0 °F 64% 29.81 in 10.0 mi WSW 9.2 mph - N/A   Mostly Cloudy
4:53 PM 51.1 °F - 41.0 °F 68% 29.84 in 10.0 mi WSW 5.8 mph - N/A   Overcast
5:01 PM 51.8 °F - 41.0 °F 67% 29.83 in 10.0 mi SW 5.8 mph - N/A   Overcast
5:53 PM 51.1 °F - 41.0 °F 68% 29.86 in 10.0 mi SW 6.9 mph - N/A   Overcast
6:33 PM 50.0 °F - 39.2 °F 66% 29.86 in 10.0 mi SSW 5.8 mph - N/A   Mostly Cloudy
6:53 PM 50.0 °F - 39.9 °F 68% 29.87 in 10.0 mi South 8.1 mph - N/A   Mostly Cloudy
7:53 PM 48.9 °F - 39.9 °F 71% 29.85 in 10.0 mi South 4.6 mph - N/A   Partly Cloudy
8:53 PM 48.9 °F - 41.0 °F 74% 29.86 in 10.0 mi Variable 3.5 mph - N/A   Mostly Cloudy
9:09 PM 48.2 °F - 42.8 °F 82% 29.86 in 10.0 mi SSW 5.8 mph - N/A   Mostly Cloudy
9:16 PM 48.2 °F - 42.8 °F 82% 29.86 in 10.0 mi SSW 3.5 mph - N/A   Scattered Clouds
9:23 PM 48.2 °F - 42.8 °F 82% 29.86 in 10.0 mi Calm Calm - N/A   Mostly Cloudy
9:33 PM 50.0 °F - 42.8 °F 76% 29.87 in 10.0 mi Calm Calm - N/A   Partly Cloudy
9:48 PM 48.2 °F - 42.8 °F 82% 29.87 in 10.0 mi Calm Calm - N/A   Mostly Cloudy
9:53 PM 48.9 °F - 42.1 °F 77% 29.88 in 10.0 mi Calm Calm - N/A   Mostly Cloudy
10:53 PM 50.0 °F - 42.1 °F 74% 29.89 in 9.0 mi Calm Calm - N/A   Overcast
11:12 PM 51.8 °F - 42.8 °F 71% 29.88 in 9.0 mi Calm Calm - N/A   Overcast
11:53 PM 51.1 °F - 43.0 °F 74% 29.90 in 8.0 mi Calm Calm - N/A   Overcast